SCP
0 0 0 0 0 0 0 0 0 0 0 0 0 0 0 0 0 0 0 0 0 0 0 0 0 0 0 0 0 0 0 0 0 0 0 0 0 0 0 0 0 0 0
0 0 0 0 0 0 0 0 0 0 0 0 0 0 0 0 0 0 0 0 0 0 0 0 0 0 0 0 0 0 0 0 0 0 0 0 0 0 0 0 0 0 0
0 0 0 0 0 0 0 0 0 0 0 0 0 0 0 0 0 0 0 0 0 0 0 0 0 0 0 0 0 0 0 0 0 0 0 0 0 0 0 0 0 0 0
0 0 0 0 0 0 0 0 0 0 0 0 0 0 0 0 0 0 0 0 0 0 0 0 0 0 0 0 0 0 0 0 0 0 0 0 0 0 0 0 0 0 0
0 0 0 0 0 0 0 0 0 0 0 0 0 0 0 0 0 0 0 0 0 0 0 0 0 0 0 0 0 0 0 0 0 0 0 0 0 0 0 0 0 0 0
0 0 0 0 0 0 0 0 0 0 0 0 0 0 0 0 0 0 0 0 0 0 0 0 0 0 0 0 0 0 0 0 0 0 0 0 0 0 0 0 0 0 0
0 0 0 0 0 0 0 0 0 0 0 0 0 0 0 0 0 0 0 0 0 0 0 0 0 0 0 0 0 0 0 0 0 0 0 0 0 0 0 0 0 0 0
0 0 0 0 0 0 0 0 0 0 0 0 0 0 0 0 0 0 0 0 0 0 0 0 0 0 0 0 0 0 0 0 0 0 0 0 0 0 0 0 0 0 0
0 0 0 0 0 0 0 0 0 0 0 0 0 0 0 0 0 0 0 0 0 0 0 0 0 0 0 0 0 0 0 0 0 0 0 0 0 0 0 0 0 0 0
0 0 0 0 0 0 0 0 0 0 0 0 0 0 0 0 0 0 0 0 0 0 0 0 0 0 0 0 0 0 0 0 0 0 0 0 0 0 0 0 0 0 0
0 0 0 0 0 0 0 0 0 0 0 0 0 0 0 0 0 0 0 0 0 0 0 0 0 0 0 0 0 0 0 0 0 0 0 0 0 0 0 0 0 0 0
0 0 0 0 0 0 0 0 0 0 0 0 0 0 0 0 0 0 0 0 0 0 0 0 0 0 0 0 0 0 0 0 0 0 0 0 0 0 0 0 0 0 0
0 0 0 0 0 0 0 0 0 0 0 0 0 0 0 0 0 0 0 0 0 0 0 0 0 0 0 0 0 0 0 0 0 0 0 0 0 0 0 0 0 0 0
0 0 0 0 0 0 0 0 0 0 0 0 0 0 0 0 0 0 0 0 0 0 0 0 0 0 0 0 0 0 0 0 0 0 0 0 0 0 0 0 0 0 0
0 0 0 0 0 0 0 0 0 0 0 0 0 0 0 0 0 0 0 0 0 0 0 0 0 0 0 0 0 0 0 0 0 0 0 0 0 0 0 0 0 0 0
0 0 0 0 0 0 0 0 0 0 0 0 0 0 0 0 0 0 0 0 0 0 0 0 0 0 0 0 0 0 0 0 0 0 0 0 0 0 0 0 0 0 0
0 0 0 0 0 0 0 0 0 0 0 0 0 0 0 0 0 0 0 0 0 0 0 0 0 0 0 0 0 0 0 0 0 0 0 0 0 0 0 0 0 0 0
0 0 0 0 0 0 0 0 0 0 0 0 0 0 0 0 0 0 0 0 0 0 0 0 0 0 0 0 0 0 0 0 0 0 0 0 0 0 0 0 0 0 0
0 0 0 0 0 0 0 0 0 0 0 0 0 0 1 1 0 0 0 0 0 0 0 0 0 0 0 0 0 0 0 0 0 0 0 0 0 0 0 0 0 0 0
0 0 0 0 0 0 0 0 0 0 0 0 0 0 1 1 1 0 0 0 0 0 0 0 0 0 0 0 0 0 0 0 0 0 0 0 0 0 0 0 0 0 0
0 0 0 0 0 0 0 0 0 0 0 0 0 0 0 0 0 0 0 0 0 0 0 0 0 0 0 0 1 0 0 0 0 0 0 0 0 0 0 0 0 0 0
0 0 0 0 0 0 0 0 0 0 0 0 0 0 0 0 0 0 0 0 0 0 0 0 0 0 0 0 1 1 0 0 0 0 0 0 0 0 0 0 0 0 0
0 0 0 0 0 0 0 0 0 0 0 0 0 0 0 0 0 0 0 0 0 0 0 0 0 0 0 0 0 1 0 0 0 0 0 0 0 0 0 0 0 0 0
0 0 0 0 0 0 0 0 0 0 0 0 0 0 0 0 0 0 0 0 0 0 0 0 0 0 0 0 0 0 0 0 0 0 0 0 0 0 0 0 0 0 0
0 0 0 0 0 0 0 0 0 0 0 0 0 0 0 0 0 0 0 0 0 0 0 0 0 0 0 0 0 0 0 0 0 0 0 0 0 0 0 0 0 0 0
0 0 0 0 0 0 0 0 0 0 0 0 0 0 0 0 0 0 0 1 1 0 0 0 0 0 0 0 0 0 0 0 0 0 0 0 0 0 0 0 0 0 0
Wind_Speed
1 1 1 0 0 1 2 1 1 1 1 2 1 1 1 1 1 2 3 6 5 4 5 6 7 7 8 8 8 8 9 9 10 10 10 10 10 10 10 9 9 9 8
1 1 1 1 1 1 0 0 1 1 1 1 1 1 1 1 2 2 2 5 6 4 4 4 6 7 7 8 9 9 9 9 10 10 10 10 10 10 10 10 10 9 9
1 1 1 1 0 1 1 1 1 1 2 2 1 1 1 1 1 1 2 2 4 6 5 4 4 6 7 8 8 9 9 10 11 11 11 10 10 10 10 9 10 10 9
1 1 1 0 1 1 1 1 1 1 1 1 1 1 1 1 1 2 2 2 1 2 5 6 5 5 6 7 7 8 8 8 9 11 11 11 11 10 9 9 10 10 9
1 1 1 0 1 1 1 1 1 1 1 1 1 1 1 1 2 2 2 2 1 2 2 6 6 6 6 7 6 6 7 7 9 10 11 11 10 10 10 10 10 10 10
1 1 2 1 2 1 1 0 1 1 1 1 1 0 1 1 2 2 2 2 2 3 2 2 4 5 6 6 6 7 7 6 8 9 10 11 11 10 10 10 10 10 10
1 2 1 2 2 1 1 1 1 2 1 1 1 1 2 2 2 2 2 2 3 3 2 3 3 3 4 8 6 6 7 8 8 9 10 10 11 11 11 11 10 10 10
2 2 1 2 1 1 2 2 2 2 1 1 2 1 1 2 2 2 2 2 2 3 3 4 3 3 3 3 5 7 6 6 7 9 10 10 11 12 12 12 11 11 10
2 1 2 2 1 2 1 2 2 3 2 1 1 2 2 0 0 2 1 1 1 2 2 2 4 3 4 3 3 7 6 5 6 7 9 10 11 12 12 12 12 11 11
2 2 2 1 2 1 1 3 1 3 3 2 1 1 2 2 2 1 2 1 1 2 2 2 2 3 4 3 2 2 5 5 5 5 6 8 10 11 12 12 12 12 12
3 2 2 2 2 2 1 2 2 4 3 3 2 2 2 2 4 2 1 1 1 1 1 2 2 2 3 3 3 3 5 5 5 5 5 7 8 10 11 12 12 12 12
3 3 3 2 2 1 2 2 3 4 3 3 3 2 2 2 2 2 2 2 1 0 1 0 1 2 2 2 2 3 4 5 4 4 4 5 6 7 9 11 11 12 11
2 2 2 2 2 2 2 2 3 3 3 3 3 3 2 2 2 2 3 2 1 1 1 1 1 1 1 1 1 3 4 5 4 4 4 5 5 6 7 8 9 10 10
2 2 2 2 2 2 2 2 3 3 2 3 3 3 3 2 2 2 2 3 2 2 1 1 0 0 1 0 2 2 2 5 4 4 4 4 4 5 5 6 7 7 8
2 3 3 2 2 2 2 2 2 2 2 3 3 3 3 2 3 2 2 2 3 3 1 2 1 0 1 1 1 1 1 4 4 4 4 4 5 5 5 5 5 6 6
2 3 3 2 2 2 2 3 3 2 2 2 2 2 2 2 1 2 2 3 3 3 3 1 1 0 2 1 1 1 1 4 5 5 5 4 4 5 5 5 5 5 6
4 3 3 3 2 2 2 2 2 2 2 2 2 2 2 2 2 2 2 2 3 3 3 2 1 0 1 3 1 2 2 3 3 7 6 5 5 5 5 5 5 5 6
4 4 4 3 3 3 3 3 3 2 2 2 2 2 2 1 2 2 2 2 2 3 4 3 2 2 2 2 2 3 2 2 2 6 7 5 5 5 5 5 5 6 5
4 4 4 4 3 3 3 3 2 2 2 2 2 2 2 2 3 2 3 3 2 2 3 3 3 2 2 2 2 3 2 2 3 4 7 7 6 6 6 6 6 6 6
4 4 4 3 3 3 3 3 2 2 2 2 2 2 2 2 2 3 3 3 3 3 3 3 3 3 2 2 2 3 2 2 2 2 1 3 6 8 8 8 7 6 6
4 4 4 4 4 3 2 2 3 3 2 2 2 2 1 0 1 2 3 2 3 3 3 3 3 3 2 2 3 3 3 2 2 2 2 3 4 5 6 8 8 7 6
4 4 5 4 4 2 2 0 3 2 2 2 2 2 3 3 2 2 2 2 3 4 4 4 3 3 3 3 3 3 3 3 3 1 3 4 3 3 3 3 4 6 6
4 4 4 4 3 2 2 2 3 3 3 2 2 2 2 1 1 1 2 4 4 4 5 5 5 4 4 3 4 5 3 4 4 3 3 4 3 3 3 1 5 5 5
4 4 4 5 4 3 4 4 4 4 3 3 2 2 2 1 1 2 3 2 3 2 3 4 4 4 4 4 5 5 4 5 5 4 3 4 3 3 3 1 6 5 5
4 5 5 5 4 4 5 5 5 4 3 3 2 2 3 2 1 2 4 3 2 2 2 1 1 2 3 4 5 4 4 5 4 3 2 4 3 3 3 3 3 7 5
4 4 4 4 4 4 5 6 6 5 3 3 3 3 3 2 2 2 4 2 2 2 2 2 3 4 4 4 6 6 5 5 4 3 0 3 4 3 3 2 1 2 3
Wind_Direction
163 136 126 133 185 160 172 175 132 128 149 177 195 182 203 186 192 181 146 152 172 198 213 216 207 201 197 193 189 189 192 197 197 194 190 186 183 183 183 183 185 185 182
119 164 157 177 177 169 78 193 137 172 180 152 221 227 230 204 189 210 181 160 172 185 197 207 199 196 195 190 192 194 198 203 204 202 195 189 187 187 188 188 191 191 187
131 185 153 192 131 177 179 204 168 192 193 194 193 216 221 231 205 218 228 207 171 173 179 187 185 193 196 196 199 202 206 211 208 203 198 194 190 190 191 192 194 195 193
153 189 174 186 211 231 218 184 201 204 198 225 211 229 195 187 213 214 219 219 207 178 170 177 185 195 202 204 205 207 211 210 205 201 197 197 192 190 191 195 197 197 196
155 184 173 141 233 214 214 233 138 223 228 240 220 190 201 191 212 213 213 212 206 231 188 162 182 200 209 211 210 209 213 207 204 200 196 197 196 192 194 197 197 197 198
145 223 176 186 240 213 204 198 199 230 246 246 267 194 220 206 225 210 226 209 208 217 221 201 188 194 201 213 216 215 215 209 200 197 200 202 201 198 201 200 200 201 202
169 241 228 184 230 210 238 217 222 208 226 234 245 221 202 203 209 221 231 231 214 216 218 222 225 215 188 198 207 212 215 213 205 204 207 208 204 202 204 203 204 206 207
207 209 227 230 206 200 204 223 242 255 232 234 279 260 220 179 200 204 213 214 226 219 215 218 222 221 243 197 171 197 214 216 214 213 212 211 205 204 206 207 208 209 209
195 226 210 242 234 234 193 227 234 248 254 235 286 300 294 325 201 155 214 216 226 235 238 229 223 220 227 230 196 185 197 210 217 219 217 209 205 206 209 212 212 211 212
193 192 206 206 241 244 203 235 210 251 253 247 202 245 301 325 292 209 172 175 225 237 261 256 239 216 223 226 199 159 179 195 211 223 222 213 207 206 207 211 212 213 215
187 192 201 205 214 222 223 247 231 255 251 260 248 223 226 227 251 270 271 252 224 199 232 248 261 246 228 230 220 179 172 193 207 217 218 211 211 209 211 213 214 215 217
181 181 200 207 218 220 215 228 231 230 252 265 263 249 242 241 239 248 249 247 248 176 200 266 256 245 229 225 218 118 163 178 197 204 206 204 209 213 215 215 216 218 220
182 175 202 206 212 211 226 233 230 245 237 239 245 250 256 260 266 262 265 266 260 214 198 217 223 242 241 208 134 141 169 177 192 191 192 194 201 210 213 215 218 222 223
175 162 201 205 209 215 224 230 243 234 234 241 244 252 254 246 258 257 266 273 261 231 193 213 267 273 311 287 73 208 171 169 188 195 199 199 200 205 210 213 218 221 221
182 181 197 205 211 216 230 238 245 248 239 240 236 226 247 245 241 250 254 267 273 272 246 183 225 58 309 353 60 268 241 156 183 194 201 200 201 199 201 205 210 209 209
189 192 193 199 210 215 220 237 230 220 236 238 251 255 257 264 265 252 259 257 263 273 282 273 241 308 329 302 137 273 235 161 186 191 197 199 196 197 199 200 207 214 217
189 193 196 199 206 212 213 228 249 229 237 238 243 233 237 279 275 267 255 264 267 269 268 278 287 238 267 281 290 276 239 233 184 176 185 195 201 201 201 206 211 217 223
194 189 199 204 214 213 213 225 237 238 238 238 239 240 243 236 246 267 267 257 267 272 266 272 279 269 250 253 265 264 257 247 244 162 179 199 206 209 213 217 218 221 223
197 196 199 203 212 216 216 224 231 239 241 244 243 236 237 246 252 255 264 268 264 251 260 263 270 288 271 258 260 256 251 262 255 169 179 193 201 211 218 222 226 227 223
198 202 204 208 208 211 214 217 216 224 231 235 246 245 246 247 259 265 251 252 261 261 246 254 261 260 261 259 262 259 249 238 261 258 200 208 199 207 216 220 222 223 224
204 206 208 210 212 209 216 221 216 218 225 230 233 238 222 228 334 306 303 295 269 261 259 255 259 264 269 270 266 267 272 271 262 267 259 235 211 219 210 209 209 215 224
209 213 217 216 213 206 95 11 275 238 240 235 235 231 199 196 181 199 282 299 301 281 281 277 271 276 275 273 284 277 274 272 275 259 270 263 254 253 249 235 170 190 215
208 219 221 219 213 180 154 195 254 252 240 237 225 239 264 117 233 252 212 223 241 256 265 279 284 288 282 281 281 275 277 284 292 297 274 271 257 257 256 139 140 186 215
208 215 217 215 213 195 178 198 229 232 238 237 222 217 254 240 281 294 270 261 259 242 245 249 275 281 289 294 279 275 276 264 259 245 250 272 269 269 278 243 154 184 215
216 219 216 215 215 199 181 198 221 220 219 224 222 214 240 221 144 275 255 252 254 232 187 178 285 285 316 294 283 268 262 263 265 256 230 266 277 283 278 260 176 177 200
222 225 217 217 217 215 186 195 219 230 213 210 203 198 188 215 171 246 255 250 248 259 264 207 208 220 230 229 233 248 264 269 273 271 266 274 277 282 278 268 272 201 208